Wetbulb
65.20 67.74 68.67 68.83 68.81 68.68 68.20 68.07 66.88 67.90 69.78 69.21 69.19 68.38 68.46 70.21 70.79 71.69 72.34 72.89 72.14 72.93 72.14 71.74 64.49 69.16 71.05 71.19 71.25 71.98 72.58 69.68 68.30 66.76 68.34 65.95 67.54 68.07 68.58 69.89 69.63 70.34 70.83
64.60 66.09 66.68 68.08 68.56 68.25 68.05 68.54 68.07 69.11 68.56 69.56 69.59 69.20 69.83 70.44 71.09 71.91 72.47 72.74 73.15 73.08 73.58 71.66 69.87 70.31 71.14 70.79 72.24 71.96 71.36 71.22 69.42 67.41 66.41 62.52 64.81 67.29 68.15 69.37 69.83 69.15 69.91
63.49 64.96 65.64 66.90 67.65 67.36 68.56 68.46 69.50 67.81 69.45 70.86 71.21 69.91 70.31 71.20 70.13 70.41 70.75 72.76 73.15 73.12 72.95 72.38 71.55 70.71 69.71 69.27 71.46 71.93 71.89 69.94 70.89 68.91 67.80 64.27 62.95 63.76 65.14 66.44 68.68 69.37 69.12
65.03 65.69 65.77 65.89 67.09 67.64 69.63 69.41 69.26 69.17 71.09 71.70 70.37 68.50 67.89 67.46 68.64 69.37 70.42 71.51 73.12 72.63 73.04 73.03 72.96 71.17 71.15 70.52 71.79 73.30 72.14 71.30 69.77 69.99 69.69 67.52 66.16 61.21 61.60 65.23 65.46 68.99 69.43
65.03 65.49 66.09 66.75 67.78 69.10 69.49 69.92 69.03 70.22 70.47 70.48 70.33 69.22 68.32 68.44 69.47 69.64 69.66 70.00 70.89 73.16 72.84 72.09 72.88 72.42 71.68 71.03 71.43 71.42 72.06 71.67 70.95 69.80 67.87 67.25 66.55 64.54 61.42 59.27 62.08 66.02 68.45
64.71 66.21 66.95 67.69 67.58 69.84 69.59 70.07 68.89 69.83 69.92 70.21 70.79 69.95 68.50 68.66 68.70 68.50 68.88 69.38 68.64 70.64 71.58 72.61 72.36 72.01 71.84 71.40 71.53 71.53 71.60 71.59 71.24 71.17 68.51 67.22 65.33 64.71 62.28 60.39 61.28 61.70 65.87
64.36 65.40 65.28 66.71 67.54 68.30 70.10 69.80 68.41 69.19 69.16 69.52 70.70 70.36 69.17 68.26 67.73 68.22 68.10 68.48 67.47 69.74 69.84 70.93 71.73 72.09 71.93 72.06 72.21 71.26 70.21 71.21 70.63 71.09 70.00 66.51 66.89 67.18 65.26 62.34 62.37 63.14 66.13
64.55 64.68 65.46 66.85 67.54 68.26 70.15 70.11 69.39 68.72 69.53 69.89 70.71 70.49 70.60 69.70 69.14 68.51 69.43 68.71 67.86 69.27 70.38 71.53 72.40 71.98 72.82 71.60 72.58 70.76 72.04 70.48 70.00 69.64 70.61 69.31 66.62 66.36 66.65 65.31 63.94 62.00 62.25
64.63 64.87 65.73 66.37 67.41 68.13 70.07 70.13 69.88 69.40 69.76 69.58 70.32 70.14 70.72 70.26 69.51 69.74 69.72 68.65 67.63 68.82 70.12 71.84 71.53 72.01 72.31 72.31 72.30 71.45 71.08 71.09 69.16 70.96 70.52 70.06 69.42 67.61 68.96 68.19 66.15 64.03 60.99
64.48 65.37 66.43 67.03 67.56 68.62 70.21 71.33 70.73 70.33 70.65 70.07 70.93 70.52 70.36 70.46 70.10 69.80 69.41 68.12 66.91 67.82 68.71 71.05 71.40 71.36 72.77 71.96 71.83 71.32 70.21 71.01 70.42 71.50 68.82 69.57 69.74 69.91 70.35 71.69 70.08 67.63 64.94
64.33 65.08 66.33 67.20 67.83 69.04 70.36 71.10 71.09 70.22 70.58 71.42 71.14 70.44 70.63 70.78 69.59 69.26 69.00 67.63 65.97 66.70 68.29 70.10 70.00 70.66 71.84 71.96 72.01 71.33 70.90 71.89 70.76 70.84 70.57 69.82 70.74 70.31 71.07 70.70 70.57 69.37 68.90
64.35 64.87 66.25 66.58 67.56 69.19 70.56 71.32 71.53 70.96 70.83 72.16 71.52 70.77 70.81 70.98 69.34 69.40 69.49 69.29 66.96 68.05 69.12 69.72 69.49 70.27 71.88 71.90 71.07 71.04 73.21 71.14 70.25 70.14 70.24 70.27 72.10 69.74 70.15 70.17 69.73 69.14 69.61
62.98 64.24 65.60 66.20 67.29 67.86 69.57 71.03 70.81 70.97 70.96 71.60 70.89 71.01 71.19 70.36 69.94 69.49 69.88 68.00 68.49 67.86 69.70 69.89 68.98 70.93 71.95 70.71 70.94 71.20 70.71 71.49 71.74 71.43 70.70 70.20 69.70 69.12 68.55 69.80 69.45 69.10 70.29
62.53 63.18 64.80 66.47 67.23 67.50 68.38 68.52 68.15 68.33 68.84 70.14 70.76 70.44 70.50 70.96 71.00 70.93 70.85 68.78 67.54 68.05 70.37 71.43 71.22 70.72 69.15 68.19 69.07 70.83 71.23 71.35 71.22 71.53 71.49 70.58 70.30 70.15 69.36 70.15 69.72 70.09 69.47
62.51 64.60 64.87 65.85 66.65 66.71 66.93 67.32 68.40 68.50 68.66 68.50 69.27 69.90 70.50 70.97 71.13 70.65 70.39 71.11 70.95 71.37 71.29 70.99 68.58 67.25 66.62 66.06 66.16 67.63 68.98 70.72 69.94 70.74 71.69 70.20 69.85 68.40 68.06 69.47 68.97 68.54 68.01
61.25 65.69 65.42 66.09 65.13 65.38 65.26 66.04 66.20 67.91 69.44 68.39 69.03 69.57 69.72 70.03 71.10 71.31 71.77 71.50 70.72 69.47 69.10 69.18 66.44 63.35 62.30 58.96 63.16 64.94 67.29 69.38 69.57 69.47 66.65 64.85 66.51 67.02 65.69 65.57 66.80 68.22 67.83
60.95 61.25 65.13 65.62 65.18 65.64 65.93 65.84 65.37 66.08 68.23 68.89 69.16 69.25 69.34 69.35 69.28 70.37 70.86 70.71 69.88 70.18 68.26 65.17 61.90 60.56 57.91 56.98 58.26 61.46 64.67 68.78 69.05 69.00 65.97 61.40 60.15 61.56 64.82 66.56 64.33 62.82 63.80
60.48 60.36 61.24 62.64 63.45 65.73 65.54 66.93 66.01 66.28 68.71 68.58 68.69 68.89 69.07 68.46 68.19 68.41 69.31 70.01 69.68 69.50 68.33 64.79 61.86 58.05 58.18 56.45 57.29 61.23 65.02 64.06 64.23 62.20 59.46 57.38 58.15 59.42 63.92 63.32 62.25 58.82 57.01
59.27 60.00 60.90 61.21 62.59 63.13 66.29 68.26 67.97 68.49 68.10 68.01 68.53 68.60 68.33 67.38 67.38 66.91 67.00 67.61 67.44 66.92 65.79 63.97 60.17 57.73 54.69 54.58 57.27 64.95 63.23 60.24 58.76 58.34 56.71 55.72 55.42 57.05 59.17 55.79 53.59 53.32 55.88
56.36 57.21 58.89 59.77 60.94 60.10 65.07 65.37 66.50 67.33 67.83 67.74 67.88 68.44 67.67 67.47 66.70 66.39 66.65 65.82 64.62 62.12 60.70 58.49 54.63 53.62 52.89 53.35 54.76 64.35 62.57 58.42 56.19 53.57 53.77 56.12 54.21 53.72 54.97 53.66 52.43 53.48 53.49
55.17 56.19 56.17 56.08 58.61 59.83 61.70 60.98 61.55 61.97 64.39 67.81 68.42 68.08 67.58 66.93 66.00 64.69 64.89 62.34 60.37 58.02 55.70 52.73 52.84 52.05 51.05 51.48 52.21 56.77 61.86 59.19 57.15 54.54 53.29 53.13 53.14 51.65 52.26 53.46 53.99 54.88 55.25
53.94 55.03 54.89 55.28 56.51 58.74 59.31 58.63 58.47 60.34 62.43 63.74 63.78 64.71 66.13 66.52 65.68 64.65 62.03 61.33 59.98 58.24 56.26 53.32 51.38 50.12 50.35 50.90 51.31 52.51 55.42 58.88 57.86 56.17 54.29 52.33 51.37 50.63 51.34 52.64 51.77 51.83 52.69
52.93 53.42 53.42 53.68 54.93 56.34 58.01 57.37 58.39 60.37 60.37 58.79 57.21 56.12 55.29 55.99 58.36 62.54 61.79 60.62 59.71 58.85 57.55 56.02 53.29 51.74 51.31 51.67 50.77 51.31 52.75 53.52 52.60 52.64 52.63 51.35 49.55 49.71 50.70 51.96 51.63 50.62 48.12
51.98 52.88 52.28 51.52 52.15 53.64 54.96 56.09 57.06 58.60 59.18 58.05 55.39 54.23 52.22 50.70 51.55 52.16 51.32 49.85 51.00 55.62 59.38 58.66 55.80 53.57 50.93 48.22 47.02 48.51 48.79 49.05 48.03 51.27 52.17 52.16 51.56 51.31 50.49 48.83 48.79 48.44 47.25
51.47 51.54 51.27 50.91 51.67 52.54 53.47 55.16 56.22 56.43 56.52 57.44 56.01 52.86 50.51 49.26 48.00 44.94 47.15 48.39 43.40 42.18 47.16 49.95 55.14 53.32 49.19 45.21 42.36 43.33 43.72 42.73 43.08 45.84 49.77 48.36 46.92 45.74 46.41 46.44 46.90 47.01 46.72
51.12 50.16 49.34 49.98 50.52 49.70 50.93 51.93 54.09 55.29 54.56 54.37 56.23 54.99 51.61 49.26 46.12 44.19 43.66 42.73 42.89 42.14 41.03 41.93 44.20 42.79 44.15 41.59 40.29 39.53 39.82 40.74 42.31 46.61 47.55 46.17 45.99 45.71 45.86 46.17 44.73 44.85 47.28
MSLP
1014.05 1014.48 1015.35 1015.99 1016.55 1017.01 1017.45 1017.61 1018.11 1018.36 1018.56 1018.74 1019.24 1019.53 1019.89 1019.84 1020.11 1019.96 1019.91 1019.80 1019.75 1020.04 1020.12 1020.37 1020.47 1020.63 1020.88 1020.92 1020.79 1020.27 1020.14 1020.19 1019.94 1020.15 1020.31 1020.41 1020.11 1019.96 1019.84 1020.77 1020.74 1020.71 1020.89
1014.31 1014.85 1015.39 1015.87 1016.26 1016.78 1017.22 1017.55 1018.04 1018.25 1018.44 1018.64 1019.14 1019.33 1019.61 1019.75 1019.72 1019.85 1019.76 1019.72 1019.81 1019.93 1020.13 1020.38 1020.57 1020.56 1020.83 1020.78 1020.79 1020.58 1020.53 1020.54 1020.25 1020.38 1020.66 1021.02 1020.78 1020.91 1020.85 1021.02 1021.37 1021.46 1020.94
1014.06 1014.82 1015.33 1015.72 1016.14 1016.62 1017.01 1017.33 1017.79 1018.21 1018.51 1018.73 1019.11 1019.37 1019.51 1019.56 1020.11 1020.08 1020.05 1019.61 1019.69 1019.77 1020.07 1020.36 1020.39 1020.60 1020.72 1021.13 1021.13 1020.82 1020.80 1020.95 1020.87 1020.44 1020.75 1021.36 1021.72 1021.75 1022.11 1021.65 1021.39 1021.23 1020.81
1013.75 1014.28 1014.99 1015.46 1015.82 1016.31 1016.74 1017.21 1017.65 1018.23 1018.55 1018.77 1019.19 1019.57 1020.00 1020.32 1020.51 1020.27 1020.00 1019.77 1019.71 1019.68 1019.81 1020.11 1020.17 1020.44 1020.73 1020.97 1020.89 1020.58 1021.00 1020.89 1021.17 1021.19 1021.07 1020.96 1021.09 1021.91 1022.39 1022.28 1021.75 1021.30 1020.78
1013.37 1013.93 1014.49 1014.96 1015.47 1016.04 1016.49 1016.96 1017.58 1018.07 1018.46 1018.77 1019.09 1019.51 1020.00 1020.17 1020.23 1020.11 1020.17 1020.23 1020.25 1019.92 1019.83 1019.88 1020.22 1020.42 1020.55 1020.64 1020.76 1020.93 1021.05 1021.09 1021.23 1021.23 1021.67 1021.73 1021.76 1021.63 1022.09 1022.25 1021.67 1021.13 1020.23
1013.21 1013.55 1014.22 1014.72 1015.27 1015.81 1016.38 1016.93 1017.61 1017.97 1018.26 1018.65 1018.99 1019.35 1019.90 1020.08 1020.26 1020.42 1020.53 1020.49 1020.41 1020.32 1020.13 1020.09 1020.17 1020.29 1020.36 1020.51 1020.63 1020.79 1021.07 1021.24 1021.10 1021.18 1021.19 1021.38 1021.78 1021.80 1022.00 1022.46 1022.04 1021.65 1020.47
1012.99 1013.35 1013.79 1014.55 1015.04 1015.59 1016.10 1016.70 1017.41 1017.91 1018.06 1018.43 1018.89 1019.31 1019.65 1019.95 1020.14 1020.49 1020.47 1020.46 1020.52 1020.52 1020.26 1020.05 1020.07 1020.25 1020.18 1020.29 1020.50 1020.86 1020.91 1021.07 1021.03 1021.11 1021.24 1021.27 1021.38 1021.38 1021.78 1022.17 1022.37 1022.15 1021.26
1012.48 1013.01 1013.35 1013.97 1014.49 1015.01 1015.70 1016.29 1016.85 1017.59 1017.98 1018.13 1018.50 1018.97 1019.31 1019.65 1019.93 1020.19 1020.16 1020.05 1020.15 1020.23 1019.96 1019.85 1019.76 1020.17 1020.02 1020.14 1020.29 1020.65 1020.76 1020.82 1021.03 1021.03 1021.16 1021.17 1021.22 1021.13 1021.23 1021.63 1021.90 1022.03 1021.69
1012.25 1012.53 1013.15 1013.61 1014.19 1014.84 1015.33 1015.80 1016.38 1016.98 1017.45 1017.74 1017.99 1018.33 1018.93 1019.26 1019.49 1019.68 1019.80 1019.90 1019.99 1019.99 1020.02 1019.89 1019.75 1019.95 1019.93 1019.91 1020.16 1020.59 1020.61 1020.63 1020.83 1020.84 1020.85 1021.11 1021.26 1021.04 1021.26 1021.19 1021.43 1021.84 1021.92
1011.83 1012.18 1012.66 1013.22 1013.68 1014.21 1014.83 1015.44 1015.84 1016.40 1016.89 1017.34 1017.59 1017.75 1018.25 1018.42 1018.99 1019.39 1019.72 1019.89 1019.89 1019.95 1019.99 1019.95 1019.89 1020.07 1019.90 1019.75 1020.09 1020.33 1020.42 1020.43 1020.63 1020.71 1020.92 1020.88 1020.99 1021.18 1021.21 1020.79 1020.65 1021.29 1021.45
1011.21 1011.79 1012.29 1012.62 1013.21 1013.54 1014.39 1015.02 1015.64 1016.21 1016.76 1017.00 1017.37 1017.51 1017.95 1018.33 1018.62 1018.99 1019.29 1019.59 1019.80 1019.80 1019.75 1019.77 1020.01 1020.27 1020.05 1019.82 1020.07 1020.30 1020.37 1020.41 1020.53 1020.55 1020.51 1020.47 1020.60 1020.78 1020.75 1020.82 1020.85 1020.87 1020.69
1010.55 1010.98 1011.99 1012.58 1013.05 1013.42 1013.72 1014.65 1015.18 1015.53 1015.83 1016.43 1016.77 1017.13 1017.40 1018.00 1018.38 1018.63 1018.65 1018.88 1019.24 1019.25 1019.39 1019.68 1019.96 1020.13 1020.29 1020.10 1020.19 1020.25 1020.25 1020.26 1020.41 1020.47 1020.51 1020.50 1020.49 1020.62 1020.77 1020.87 1020.85 1020.79 1020.53
1010.15 1010.71 1011.61 1012.29 1012.86 1013.33 1013.77 1014.35 1014.89 1015.49 1015.71 1016.11 1016.74 1016.92 1017.15 1017.71 1017.97 1018.41 1018.53 1018.63 1018.77 1019.01 1019.17 1019.39 1019.71 1019.93 1020.13 1020.35 1020.31 1020.32 1020.27 1020.11 1020.17 1020.33 1020.38 1020.30 1020.27 1020.42 1020.57 1020.63 1020.74 1020.83 1020.94
1009.44 1010.17 1011.11 1011.96 1012.52 1013.08 1013.54 1014.13 1014.87 1015.40 1015.85 1016.05 1016.71 1017.08 1017.07 1017.16 1017.40 1017.70 1018.31 1018.63 1018.71 1018.87 1019.16 1019.36 1019.56 1020.09 1020.20 1020.22 1020.25 1020.28 1020.22 1020.29 1020.34 1020.41 1020.14 1020.13 1020.23 1020.35 1020.44 1020.53 1020.61 1020.59 1020.72
1011.48 1011.19 1012.18 1012.55 1012.85 1013.23 1013.54 1014.07 1014.43 1014.83 1015.25 1015.57 1016.27 1016.97 1016.85 1016.79 1017.21 1017.82 1018.27 1018.75 1018.81 1019.01 1019.05 1019.31 1019.86 1020.18 1020.13 1020.50 1020.75 1020.47 1020.26 1020.14 1020.32 1020.39 1020.32 1020.21 1020.11 1020.19 1020.36 1020.47 1020.49 1020.45 1020.63
1013.33 1013.22 1012.23 1012.89 1013.20 1013.24 1013.60 1013.95 1014.34 1014.37 1014.22 1014.75 1016.05 1016.74 1016.93 1017.08 1017.13 1017.33 1017.82 1018.19 1018.75 1019.11 1019.35 1019.49 1019.71 1020.24 1020.59 1020.87 1020.67 1020.45 1020.46 1020.28 1020.35 1020.56 1020.59 1020.46 1020.35 1020.33 1020.35 1020.38 1020.28 1020.46 1020.67
1014.65 1014.77 1013.96 1013.87 1013.69 1013.75 1014.00 1014.29 1014.44 1014.56 1014.50 1015.26 1015.97 1016.35 1016.37 1016.99 1017.35 1017.39 1017.68 1018.01 1018.60 1019.27 1019.77 1019.93 1020.25 1020.97 1020.92 1020.89 1020.80 1020.49 1020.35 1020.24 1020.36 1020.49 1020.70 1020.90 1020.95 1020.59 1020.56 1020.52 1020.56 1020.65 1020.66
1015.77 1014.37 1014.97 1014.85 1014.51 1014.62 1014.76 1014.95 1014.74 1014.85 1014.93 1015.49 1015.11 1015.71 1016.35 1017.03 1017.39 1017.40 1017.51 1017.75 1018.25 1018.81 1019.58 1020.11 1020.19 1020.93 1021.31 1020.97 1020.57 1020.32 1020.34 1020.53 1020.56 1020.62 1020.78 1020.93 1021.09 1021.07 1020.92 1020.92 1021.12 1021.19 1021.06
1017.58 1016.83 1016.22 1015.28 1015.29 1014.90 1014.49 1014.64 1014.83 1015.07 1015.22 1015.23 1015.35 1015.82 1016.19 1017.06 1017.49 1017.54 1017.66 1017.85 1018.39 1019.00 1019.55 1019.95 1020.66 1021.43 1021.60 1021.09 1020.38 1020.27 1020.52 1020.88 1021.06 1021.12 1021.21 1021.16 1021.27 1021.39 1020.88 1021.11 1021.37 1021.44 1021.16
1017.80 1017.65 1016.79 1016.05 1015.70 1015.34 1014.96 1015.16 1015.33 1015.31 1015.11 1015.37 1015.50 1015.79 1016.28 1016.95 1017.36 1017.73 1018.01 1018.22 1018.75 1019.25 1019.60 1020.33 1020.93 1021.47 1021.15 1020.80 1020.64 1020.63 1020.95 1021.24 1021.31 1021.52 1021.70 1021.48 1021.73 1021.68 1021.49 1021.48 1021.53 1021.63 1021.71
1018.37 1017.86 1017.09 1017.20 1016.90 1016.27 1015.77 1015.94 1015.56 1014.69 1015.62 1014.75 1015.87 1015.96 1016.55 1017.16 1017.79 1018.03 1018.32 1018.71 1019.25 1020.03 1020.53 1020.96 1021.08 1020.97 1020.88 1020.95 1021.00 1020.91 1021.17 1021.11 1021.35 1021.66 1022.12 1022.22 1021.95 1021.89 1021.87 1021.67 1021.82 1021.97 1021.83
1018.64 1018.44 1018.34 1018.01 1017.39 1016.63 1016.51 1016.54 1016.55 1016.76 1016.14 1016.05 1015.52 1014.95 1016.68 1017.61 1018.14 1018.36 1018.87 1019.07 1019.31 1020.27 1021.06 1021.21 1021.08 1021.28 1021.42 1021.30 1021.55 1021.51 1021.31 1021.37 1021.44 1021.87 1022.30 1022.35 1022.28 1022.28 1022.01 1021.91 1022.22 1022.28 1022.19
1019.36 1019.12 1018.74 1018.23 1017.88 1017.42 1017.33 1017.41 1017.51 1017.41 1017.36 1017.52 1017.82 1018.03 1018.32 1018.74 1018.99 1019.25 1019.61 1019.93 1019.99 1020.65 1021.01 1021.30 1021.63 1021.72 1021.81 1022.25 1022.17 1022.22 1022.15 1021.95 1021.99 1021.96 1022.30 1022.71 1022.78 1022.57 1022.59 1022.47 1022.27 1022.32 1022.73
1018.88 1019.61 1019.00 1019.01 1018.75 1018.41 1018.34 1018.25 1018.28 1018.37 1018.55 1018.85 1019.11 1019.44 1019.64 1020.07 1020.45 1020.67 1020.86 1020.98 1021.37 1021.55 1021.40 1021.47 1021.82 1022.07 1022.28 1022.63 1022.71 1022.90 1022.81 1022.51 1022.70 1022.42 1022.35 1022.57 1022.81 1023.15 1023.23 1023.19 1023.17 1023.35 1023.37
1019.58 1019.93 1019.35 1019.51 1019.37 1019.40 1018.91 1019.01 1019.05 1019.34 1019.31 1019.48 1020.05 1020.21 1020.63 1020.76 1021.40 1021.95 1022.24 1022.65 1022.67 1022.54 1022.49 1022.02 1021.67 1022.39 1022.70 1023.14 1023.30 1023.47 1023.51 1023.29 1023.06 1023.32 1023.21 1023.27 1023.32 1023.50 1023.94 1024.14 1024.03 1024.02 1024.10
1020.61 1020.47 1020.34 1020.42 1020.45 1020.29 1020.13 1019.75 1019.78 1019.83 1020.15 1020.25 1020.60 1020.83 1020.92 1021.38 1021.72 1022.35 1022.84 1023.31 1023.37 1023.08 1022.86 1022.65 1022.10 1022.75 1022.73 1023.14 1023.67 1023.75 1023.64 1023.40 1023.29 1023.23 1023.47 1023.63 1023.85 1023.85 1024.21 1024.73 1024.78 1024.67 1024.65
Wind_Speed
13 19 18 16 12 9 8 7 7 6 4 2 4 3 3 2 2 2 5 5 2 4 4 2 2 2 5 3 4 3 5 5 4 1 3 2 2 4 4 9 7 11 11
16 17 17 14 14 12 9 9 8 7 4 3 3 3 3 2 3 1 3 3 3 4 4 3 2 4 4 6 6 5 3 2 4 2 1 2 5 6 8 8 7 7 5
18 17 17 15 13 13 10 9 10 8 5 5 3 3 3 4 3 1 2 2 4 4 5 2 3 3 4 2 2 3 5 3 4 7 3 2 1 1 1 5 5 5 2
17 19 16 14 15 13 11 10 8 8 5 6 4 5 4 3 2 2 2 1 3 4 5 4 3 3 2 3 2 3 3 2 4 2 5 3 5 3 1 1 1 2 3
20 20 18 17 14 14 13 10 8 8 7 7 6 5 4 3 2 1 1 1 4 3 3 5 5 4 3 2 3 4 5 2 2 2 2 2 3 3 3 3 4 3 3
15 18 15 15 13 12 12 10 9 7 8 7 6 7 7 6 2 1 3 1 2 3 4 3 3 3 3 2 2 2 4 3 2 2 2 2 3 0 2 2 2 3 4
11 14 16 15 14 14 14 11 9 7 8 9 8 7 7 7 6 4 3 5 1 1 1 2 1 3 2 2 2 1 2 2 1 3 1 0 2 2 3 3 1 2 3
9 11 14 16 17 16 15 14 12 9 8 8 8 7 7 4 4 5 4 4 4 3 2 1 3 4 4 2 2 1 1 2 2 3 4 3 2 2 1 2 3 2 3
11 12 10 13 15 14 16 15 14 11 10 9 8 7 6 6 6 7 4 3 4 3 3 2 2 2 5 4 4 2 1 1 2 1 2 4 4 3 3 3 3 4 1
13 11 13 11 13 17 15 13 13 13 12 9 8 8 7 7 6 5 6 6 6 4 5 2 1 4 6 5 3 3 2 1 2 2 2 1 2 3 3 3 3 2 4
15 12 12 11 13 16 15 14 12 10 9 10 7 7 7 8 6 6 6 7 5 7 6 3 2 5 4 4 4 4 4 3 3 1 2 2 1 1 2 2 1 1 1
17 13 12 10 12 13 17 17 15 14 14 12 11 9 8 9 8 7 8 6 7 6 5 5 5 4 5 4 6 6 4 5 4 4 4 5 3 2 2 1 1 1 2
16 15 11 11 12 11 12 12 12 10 6 9 10 10 9 8 10 9 7 6 6 6 5 5 5 6 5 2 4 5 5 5 3 4 6 6 4 2 1 2 1 1 0
17 17 13 13 13 12 12 11 8 7 6 6 4 8 8 9 10 10 7 7 8 7 6 5 5 3 4 4 4 4 3 4 3 1 2 2 3 4 4 1 1 1 2
3 11 11 12 12 12 11 10 11 11 7 6 3 6 8 6 5 3 2 2 6 6 6 4 6 4 5 3 2 4 4 3 2 2 4 4 7 7 3 2 2 2 1
16 6 9 9 11 10 8 7 8 9 7 7 5 5 5 4 6 7 5 5 4 3 2 4 7 5 3 4 4 3 4 2 1 5 5 5 6 6 6 5 1 4 3
15 10 6 0 4 6 7 10 6 6 9 8 7 7 5 1 5 6 8 7 7 4 2 5 7 3 2 6 6 4 3 1 3 5 6 4 3 4 3 4 8 11 8
4 10 7 8 7 4 5 4 5 4 6 8 9 7 6 4 2 3 5 5 4 7 5 4 7 5 3 6 5 1 3 4 5 6 6 6 5 3 3 6 5 6 5
2 2 1 4 5 6 4 4 5 5 6 7 6 6 8 6 5 3 3 4 6 6 6 6 7 2 3 5 4 8 6 6 6 5 5 5 6 7 7 6 6 4 5
5 3 5 5 6 7 3 7 2 3 7 5 6 8 7 5 5 4 5 4 5 7 7 7 6 4 2 10 7 4 5 6 5 5 5 9 6 8 8 6 5 6 3
6 6 7 6 5 7 6 10 7 7 4 4 4 8 8 7 5 4 4 6 7 6 6 5 4 5 5 7 12 8 3 4 5 4 3 3 6 7 8 7 4 2 1
8 7 6 6 7 9 9 10 10 7 9 8 7 9 8 5 4 5 4 6 8 7 5 5 5 4 4 8 9 8 5 5 5 4 2 2 7 9 10 8 9 10 6
6 5 6 8 9 10 9 11 7 8 10 11 10 11 10 9 7 6 4 4 4 4 4 4 3 3 3 3 10 11 9 9 3 3 3 7 8 10 9 9 11 9 5
7 3 7 7 8 8 8 8 7 6 9 10 8 8 9 9 9 7 6 5 4 2 3 4 4 4 3 3 3 3 4 7 6 6 5 7 8 8 5 5 6 4 4
5 3 6 5 6 5 7 6 5 5 7 7 6 6 6 8 6 6 5 4 3 2 3 2 3 5 3 2 3 1 2 1 2 1 1 2 3 4 4 4 4 4 4
1 5 6 6 5 7 6 7 6 5 5 5 5 3 4 4 5 4 4 8 6 7 5 4 2 2 7 8 4 3 2 1 2 2 3 2 2 4 4 4 4 4 6
Wind_Direction
151 147 153 155 156 145 146 140 139 168 145 118 96 102 138 160 147 175 186 160 149 110 82 48 50 354 56 339 315 328 27 12 14 44 49 30 295 291 312 41 42 37 40
141 150 154 155 163 154 160 146 160 172 162 128 127 138 172 169 126 186 180 168 167 122 108 135 98 52 32 11 4 29 21 353 15 109 82 46 333 30 70 81 76 53 47
149 156 160 162 159 157 163 167 161 164 154 142 102 69 38 52 39 1 259 173 169 150 135 114 125 91 83 20 346 32 51 10 17 31 129 74 198 140 356 43 89 109 59
158 158 165 163 163 167 163 165 157 147 144 124 123 139 141 147 215 215 245 247 233 177 166 149 140 118 124 59 19 46 55 70 34 80 22 65 160 153 74 44 331 150 127
162 166 170 171 171 161 171 168 149 154 148 131 134 128 127 145 193 205 294 55 2 317 233 159 163 160 109 84 72 62 60 56 87 86 166 43 22 37 122 238 266 260 243
166 169 170 168 165 165 166 166 154 160 157 142 144 154 150 157 142 175 142 49 1 359 34 23 177 177 143 91 82 109 91 80 80 102 80 172 177 216 98 299 355 296 306
161 153 159 169 168 168 171 169 162 164 170 159 158 166 181 187 186 182 188 191 161 235 352 61 128 199 194 155 132 126 93 106 117 112 128 287 149 147 146 136 160 342 318
191 163 159 170 175 172 173 177 172 169 170 168 175 180 192 193 176 187 201 197 192 200 197 182 146 248 201 205 176 163 163 133 138 121 146 181 189 211 161 156 144 350 348
188 176 167 167 175 174 178 182 176 178 176 179 174 182 179 185 189 197 199 174 201 209 207 233 187 259 260 205 187 176 244 198 129 122 90 150 202 227 241 205 168 151 184
178 184 169 169 171 176 182 179 181 181 181 178 185 183 177 185 181 190 196 209 215 215 227 214 241 296 253 212 181 174 206 159 227 204 144 143 174 177 176 204 125 196 196
178 176 185 173 170 174 176 177 175 172 177 178 182 184 170 180 177 193 200 213 195 207 209 218 263 277 240 192 168 204 216 171 192 232 253 249 109 118 77 39 112 337 120
185 175 179 166 156 164 171 179 181 184 186 186 184 191 176 180 181 201 209 206 205 203 204 225 231 263 260 204 208 209 198 195 212 234 212 239 180 176 158 137 63 5 343
180 182 164 163 165 163 167 170 171 179 172 178 194 194 196 177 193 202 203 199 227 229 224 202 226 251 253 282 245 219 230 204 227 254 221 234 187 195 223 193 208 193 56
182 184 168 171 168 166 160 155 142 129 127 117 199 202 204 192 203 203 193 192 207 212 223 226 223 172 111 54 18 315 239 239 218 126 68 218 194 220 209 194 103 35 20
351 164 163 174 170 166 161 160 158 156 158 123 140 217 222 186 147 120 78 294 204 217 207 170 112 100 94 64 340 300 302 234 226 92 100 73 81 73 92 151 162 119 80
5 310 155 164 178 172 180 169 171 171 161 149 179 194 189 151 170 129 140 110 17 253 123 132 120 96 78 -0 274 327 295 300 98 132 103 78 61 52 40 20 21 214 176
11 1 355 228 207 199 193 203 193 150 150 148 150 176 125 289 227 182 172 188 149 104 107 113 85 45 65 359 333 319 270 189 126 153 129 100 54 65 71 45 83 70 71
307 24 6 12 19 322 234 236 170 166 159 180 177 161 157 185 179 136 183 175 166 161 149 127 111 113 357 336 317 257 118 85 88 101 116 119 100 54 122 108 85 62 42
31 332 224 82 27 356 299 218 173 164 170 181 174 159 140 154 161 169 130 126 127 127 131 116 117 130 262 326 17 114 99 96 80 81 84 97 81 27 75 98 98 73 19
16 19 6 32 41 13 26 77 55 185 178 184 158 138 130 149 148 155 122 76 92 104 102 104 116 156 43 18 29 121 128 129 119 80 70 68 79 53 50 75 92 83 17
51 25 40 29 17 35 53 70 73 31 351 75 132 128 124 130 148 121 110 109 100 95 94 109 102 78 51 33 22 55 116 133 114 108 92 48 75 84 73 70 71 100 63
36 46 50 51 34 46 61 72 57 30 40 74 64 69 100 108 112 103 89 115 123 120 128 119 94 71 50 37 27 37 71 126 122 125 118 94 77 92 85 77 69 63 60
40 31 58 57 43 46 47 68 46 57 62 59 56 50 56 53 42 76 100 105 110 129 140 129 114 108 79 50 32 31 33 43 73 91 91 101 98 92 73 74 84 81 78
69 8 75 70 63 50 56 59 45 45 77 83 75 75 69 54 39 49 38 52 32 34 145 140 137 139 120 107 70 59 42 35 33 22 82 99 89 70 66 54 50 64 88
72 24 61 45 63 58 62 52 61 69 76 79 81 76 81 90 80 54 37 55 65 92 -0 341 145 152 157 145 99 98 126 94 97 269 87 70 69 81 69 57 60 58 53
57 106 86 77 43 35 38 43 43 68 69 89 115 126 119 124 116 116 104 44 36 18 42 310 107 62 103 131 115 62 3 281 214 110 145 150 127 122 117 93 70 46 71